Theta_e
348 348 348 348 348 348 348 351 351 350 351 349 348 347 346 347 347 347 347 346 346 347 347 346 347 347 347 347 345 344 345 346 347 347 347 347 347 347 347 347 347 348 349 350 350 349 350 350 351 352 351 351 353 354 354 354 355 355 355 355 354 354 354
343 344 346 347 347 347 348 350 351 351 351 350 349 348 347 348 348 348 347 345 345 346 346 346 346 347 347 346 346 345 346 347 347 347 348 348 348 347 347 347 347 347 348 349 349 348 349 349 350 351 352 352 353 354 354 355 355 355 355 355 354 354 353
338 339 342 345 347 347 348 349 350 350 350 350 349 348 348 348 347 347 346 345 345 345 346 346 346 346 346 347 346 346 346 347 348 348 348 348 348 347 347 347 347 347 347 348 348 348 348 349 349 350 351 351 352 353 354 354 355 355 355 354 354 355 354
337 337 338 341 346 348 348 349 349 349 349 350 350 348 348 348 347 346 346 346 346 346 346 346 346 347 347 347 347 347 347 347 347 348 348 348 347 347 347 347 347 347 346 347 347 348 348 348 348 349 350 351 351 352 353 355 355 355 356 355 355 355 354
337 337 337 338 341 345 349 350 348 348 348 348 349 349 348 347 347 347 347 347 347 347 346 345 346 347 346 346 347 348 347 347 347 347 347 347 346 346 346 346 347 346 346 346 346 347 348 348 348 347 348 349 350 351 351 353 355 355 355 355 355 356 355
336 336 337 337 338 341 346 349 349 348 347 347 347 348 348 347 347 346 347 348 348 348 347 347 347 347 347 347 347 347 347 347 347 347 347 347 346 346 345 345 345 345 345 346 346 346 347 348 348 347 346 346 348 351 351 351 353 355 355 356 356 356 356
334 335 336 336 337 338 341 348 350 347 347 347 346 347 348 347 346 346 346 348 348 349 348 348 348 348 347 347 347 348 347 346 347 346 347 347 347 346 345 344 343 343 343 344 344 345 346 348 348 347 346 345 346 349 351 350 350 353 354 355 356 356 357
333 334 333 334 335 336 338 344 349 349 348 347 346 347 347 346 346 345 346 347 348 348 348 348 348 348 347 347 347 347 347 347 347 347 347 348 348 346 345 344 342 342 342 342 342 343 344 346 346 345 344 344 344 346 348 348 349 350 352 354 355 356 357
331 332 332 332 333 335 338 340 342 347 349 349 349 347 346 346 346 345 345 346 347 348 348 348 348 348 347 347 347 347 347 348 348 348 348 348 348 347 347 345 344 342 342 342 341 341 341 343 343 342 342 343 343 344 345 346 347 348 349 351 353 354 357
330 331 331 331 332 334 337 338 339 341 343 346 349 349 347 346 346 345 345 345 346 347 348 347 348 349 348 348 348 348 349 349 349 349 349 348 349 348 348 347 346 344 343 343 343 341 338 339 341 342 342 342 342 343 344 344 345 347 347 348 350 351 354
328 329 330 330 331 332 334 335 336 337 339 341 343 346 349 349 347 346 345 345 346 346 347 348 348 349 349 349 349 350 350 350 350 349 349 349 349 348 348 348 347 346 344 344 345 343 340 338 340 342 343 342 342 342 342 343 343 344 346 347 348 348 350
327 328 328 329 329 330 332 333 334 335 336 338 340 342 344 347 349 347 345 345 346 346 346 347 348 349 349 349 349 350 350 351 350 350 349 349 348 348 349 348 348 347 345 344 345 345 343 340 338 338 340 342 342 341 341 342 342 342 344 347 349 348 349
326 326 327 328 328 329 330 332 333 334 334 336 338 339 340 342 345 348 349 347 345 346 346 347 348 349 349 349 349 350 351 351 350 350 350 349 349 348 348 348 348 348 346 345 345 345 345 344 340 335 334 338 341 342 341 341 342 342 342 345 349 349 348
325 325 325 326 327 328 328 329 331 332 333 334 336 337 338 340 341 343 347 349 347 346 346 347 348 348 349 349 350 351 351 351 350 350 350 350 349 348 348 349 348 348 347 346 345 345 345 345 344 338 335 336 339 341 342 342 342 343 342 344 347 349 349
324 323 324 325 326 326 326 327 329 331 332 333 335 336 336 337 339 341 343 346 348 348 347 347 348 347 348 350 350 351 351 350 351 351 351 351 350 348 348 349 348 348 348 347 346 345 345 344 345 344 341 339 339 340 342 343 342 342 343 343 345 347 350
323 323 323 324 325 325 325 326 328 329 330 331 333 334 335 336 337 339 341 343 346 349 349 349 348 347 348 350 351 351 349 349 351 351 351 351 350 349 349 350 350 349 348 347 347 347 346 344 344 345 344 343 342 341 343 343 342 341 341 342 342 344 347
323 322 322 323 324 325 325 325 326 327 329 330 331 332 333 334 335 337 339 341 344 347 349 351 351 348 349 351 351 349 348 349 350 351 351 350 350 351 350 350 351 350 349 348 348 347 347 346 345 345 345 345 345 344 344 343 341 339 340 341 341 342 345
323 323 322 322 324 325 325 325 325 326 327 328 329 330 331 332 334 336 337 340 343 346 348 352 353 351 351 351 351 348 348 350 351 351 351 350 351 351 351 351 351 351 350 349 348 348 347 347 347 346 346 347 347 346 345 343 340 338 339 340 340 341 343
322 323 322 322 323 324 325 325 325 325 326 327 328 328 329 330 332 334 335 338 342 344 347 351 354 353 352 351 351 350 349 351 352 353 352 351 351 351 352 352 352 352 351 350 350 349 348 348 348 348 347 348 348 347 347 346 342 340 339 339 339 340 341
322 323 323 322 323 324 326 327 325 324 325 326 326 326 327 328 330 332 333 337 340 341 344 347 352 356 355 352 351 351 350 351 352 353 354 353 352 352 353 353 353 353 352 352 352 351 349 349 349 349 349 348 348 348 348 347 346 343 342 340 340 341 341
323 322 322 322 323 325 325 327 326 325 325 325 325 325 326 327 328 330 332 335 337 338 340 342 346 350 354 355 354 351 351 352 352 353 354 354 354 354 354 354 354 354 353 353 353 352 351 350 350 350 349 349 349 350 349 349 347 346 346 344 342 343 343
322 322 322 322 323 324 325 326 327 326 325 325 324 323 324 326 328 329 331 333 334 336 336 337 340 343 346 350 353 354 354 353 353 354 354 355 355 355 355 356 355 354 354 354 354 353 353 352 351 351 350 350 350 350 350 350 349 348 347 346 345 345 345
320 321 323 323 323 323 323 325 327 327 326 325 323 322 322 325 327 329 330 331 332 333 334 334 335 337 338 341 345 349 354 355 355 355 355 355 356 356 356 356 356 355 355 355 354 354 354 353 353 352 352 351 351 350 351 351 350 349 348 348 346 345 346
318 319 320 322 323 323 322 323 326 326 325 325 324 321 320 323 326 329 330 330 330 331 332 332 332 332 334 336 338 341 347 354 357 357 356 356 357 356 356 357 356 356 356 355 355 355 354 354 354 353 353 352 352 351 351 351 351 350 349 348 347 346 346
317 317 317 319 321 323 322 323 325 326 325 325 325 322 321 321 325 328 330 329 329 330 330 330 330 330 331 332 334 337 341 348 356 359 357 357 357 356 356 356 357 356 356 356 355 355 355 355 355 355 354 354 353 352 351 352 352 351 350 349 348 347 346
316 316 316 317 319 321 322 323 324 325 325 324 324 323 321 321 324 328 329 328 328 328 328 327 328 329 331 332 333 335 338 342 349 357 359 359 358 358 358 358 357 357 357 357 356 356 356 356 356 356 356 355 355 353 352 352 352 352 351 350 349 348 347
315 315 316 316 317 319 321 322 323 324 324 324 325 324 322 322 325 328 328 328 328 326 324 325 326 327 330 332 333 334 336 338 343 349 356 360 361 359 359 360 359 359 359 358 358 357 358 358 357 357 357 356 356 355 354 354 353 352 352 351 350 349 348
315 315 316 316 317 318 320 320 322 323 323 324 325 324 322 322 325 327 328 328 327 324 322 323 325 326 328 331 333 333 334 336 339 342 347 355 361 362 362 361 361 361 361 361 360 360 360 360 359 358 359 358 358 357 357 356 355 354 353 353 352 351 349
315 316 316 316 316 317 318 319 321 322 323 323 324 324 323 323 325 326 328 328 326 324 323 323 323 324 327 330 332 333 333 334 337 339 341 346 353 358 361 362 362 363 363 363 362 362 361 361 361 360 360 360 359 359 358 357 356 356 354 353 353 352 351
315 315 316 316 316 316 317 318 320 322 323 323 322 323 324 323 324 326 327 327 325 324 324 323 322 323 327 329 331 331 331 333 334 336 338 340 344 348 354 359 361 363 364 364 363 363 363 362 362 362 361 361 361 360 360 359 358 358 356 355 354 354 353
315 316 316 316 316 317 317 318 319 321 323 323 322 323 323 323 323 326 326 325 324 325 324 323 322 323 326 329 330 330 331 332 333 335 337 340 342 344 348 354 358 361 363 364 364 363 363 363 363 363 362 362 362 361 361 361 360 360 359 357 356 355 354
315 316 316 316 317 317 317 318 319 320 322 324 323 323 322 322 322 325 326 323 322 324 325 323 323 324 326 327 328 329 330 332 334 335 337 340 343 344 346 351 356 359 362 364 364 364 364 363 364 363 363 363 363 362 362 362 361 361 360 359 357 356 355
314 315 315 316 317 317 318 318 319 320 321 323 323 323 322 322 322 324 325 322 320 322 324 324 325 326 326 327 327 328 329 332 334 334 336 339 343 345 347 350 353 357 360 363 364 364 365 365 364 363 363 363 363 362 363 363 362 362 362 361 359 357 356
314 315 315 315 316 317 318 318 319 320 321 322 324 324 323 322 322 324 324 322 320 321 323 324 325 326 326 326 327 328 329 331 331 331 333 335 339 342 345 348 350 353 357 361 363 364 365 365 364 364 364 364 364 364 363 363 363 363 363 362 360 358 357
314 314 314 315 316 316 317 317 318 319 320 321 323 324 323 322 323 324 323 321 319 321 322 323 324 325 325 326 327 327 328 329 329 329 330 332 335 338 342 345 347 349 353 356 359 361 363 363 364 364 364 364 365 364 364 365 365 364 363 362 361 360 358
313 314 314 315 315 316 316 317 318 319 320 321 322 323 323 323 323 324 322 319 319 320 321 322 323 324 325 325 326 326 326 327 327 328 329 330 332 335 338 341 344 346 349 351 353 355 358 360 362 364 364 364 365 365 365 365 365 364 363 362 361 360 359
312 313 313 314 315 316 316 317 317 319 320 321 323 324 323 323 324 323 320 318 318 319 320 321 322 323 323 324 324 324 325 325 326 327 328 329 330 331 333 335 338 342 345 348 349 352 355 357 359 361 362 363 364 364 364 364 364 363 362 362 361 360 359
312 313 314 314 315 316 317 317 317 318 319 321 323 324 324 324 323 321 319 317 317 318 319 320 321 322 322 322 323 324 324 325 326 326 327 327 327 328 329 331 334 337 340 343 346 348 351 355 358 360 361 361 362 363 363 364 363 362 362 361 361 360 360
Wind_Speed
6 10 11 13 13 14 14 17 21 22 22 23 24 27 28 26 27 27 29 33 34 33 34 35 34 35 35 35 35 35 35 34 34 32 30 29 28 27 25 22 21 20 19 17 17 16 15 15 14 15 15 14 13 12 11 10 9 8 8 8 8 8 9
9 7 5 8 13 15 15 18 22 22 22 23 24 26 27 27 27 29 31 35 37 35 36 37 36 36 36 36 36 36 36 35 35 34 32 31 29 28 27 25 23 22 20 18 18 18 17 15 15 15 15 15 14 13 13 11 10 10 9 9 9 9 9
11 12 11 9 7 13 15 17 21 23 24 24 24 25 26 28 31 33 35 36 37 37 35 36 37 37 37 37 37 37 36 36 36 35 34 33 31 30 29 27 25 23 22 21 19 18 18 17 16 16 15 15 15 15 14 13 12 11 11 10 10 10 10
12 11 11 12 10 8 14 16 19 22 23 23 25 26 27 30 34 36 37 37 37 37 36 37 37 36 37 37 37 37 37 37 37 36 35 34 33 31 30 29 27 25 24 23 22 20 19 18 17 16 16 16 16 16 15 15 14 12 12 11 11 12 12
15 14 11 11 13 9 8 13 17 18 20 23 23 24 25 28 30 31 33 35 35 37 39 40 38 37 38 38 37 37 38 38 38 38 36 35 34 33 32 31 29 28 27 25 24 23 21 20 19 18 17 16 16 16 16 16 15 14 13 13 13 13 12
14 14 13 11 11 12 11 9 16 19 19 22 23 23 24 26 27 28 29 30 31 32 35 36 35 36 39 38 36 37 38 39 39 38 38 36 35 34 33 33 32 30 29 27 26 25 24 23 21 20 19 17 17 17 16 17 16 15 15 15 14 14 13
13 13 14 14 12 12 14 12 9 18 20 20 21 22 25 26 27 28 28 28 29 29 30 32 31 33 37 37 37 38 39 39 39 38 38 36 36 36 35 34 33 32 30 29 27 27 26 25 24 23 21 19 18 18 17 17 17 17 17 16 16 15 14
13 13 13 14 15 13 14 18 11 7 16 20 21 21 22 25 26 27 27 27 28 28 28 30 30 32 36 38 37 38 38 37 37 38 38 36 35 36 36 35 34 33 31 30 28 27 27 27 26 25 23 22 20 19 19 18 18 17 17 17 17 16 15
13 14 14 15 15 15 15 18 20 15 7 3 12 19 23 23 24 26 28 27 26 27 28 30 29 31 37 39 37 38 37 35 34 35 36 34 33 34 35 34 35 34 33 31 30 28 28 27 26 25 24 23 22 20 20 20 19 19 18 18 18 17 17
13 13 15 16 15 15 17 20 22 21 21 18 10 5 17 23 24 24 26 26 26 27 28 28 27 27 33 36 35 34 33 33 32 31 32 32 31 32 32 30 32 35 34 32 30 30 29 28 27 26 25 24 23 22 21 20 20 20 20 19 18 18 18
13 13 14 17 17 16 18 20 19 19 19 20 21 17 7 10 20 24 24 26 26 26 25 25 24 24 28 31 30 28 29 31 29 28 30 30 29 31 31 28 28 32 34 33 31 30 30 30 28 27 26 26 25 25 24 22 21 21 21 21 21 20 19
13 13 13 16 16 16 16 16 17 19 20 20 21 21 19 13 4 14 21 25 25 24 25 25 22 22 25 27 27 27 28 29 29 29 30 31 30 29 29 28 27 30 33 34 32 30 30 31 31 30 29 28 27 27 26 25 23 23 23 23 22 22 21
12 12 12 13 14 14 15 15 17 20 20 21 21 20 20 20 17 10 6 16 23 23 25 26 23 22 23 25 26 26 27 29 31 31 29 31 32 30 28 28 28 28 32 33 33 32 29 29 32 33 32 31 29 28 28 28 27 25 24 24 24 24 23
15 15 15 14 14 15 15 14 16 19 21 20 21 22 21 20 20 19 15 6 11 19 24 26 25 24 23 25 25 26 28 31 32 32 30 30 33 33 30 28 27 28 30 32 33 33 30 28 30 32 33 32 31 31 29 29 29 28 27 26 26 25 25
16 16 16 16 15 14 14 13 13 16 19 20 21 22 22 21 21 20 19 16 9 8 17 23 27 30 28 26 27 29 32 33 30 29 30 29 32 35 33 29 28 28 29 31 33 31 30 29 28 29 31 32 32 32 31 30 31 31 30 29 28 27 25
15 15 16 15 15 13 12 12 14 16 18 19 21 22 21 20 21 20 18 17 15 10 6 14 25 33 30 25 28 33 35 35 31 28 29 31 32 35 35 31 28 27 29 32 32 29 30 32 30 28 29 31 33 33 32 33 34 34 33 31 30 29 26
14 15 15 14 14 13 12 13 14 17 18 18 20 21 20 19 19 19 19 17 17 15 10 7 16 27 28 26 29 35 35 34 32 30 31 33 33 32 33 31 28 27 30 32 32 31 32 33 33 31 29 28 30 32 33 36 37 38 37 35 33 31 28
13 14 14 14 13 13 13 13 14 16 18 18 19 20 20 20 19 19 20 19 18 17 14 11 9 18 24 25 29 33 34 31 30 31 32 33 32 32 32 30 27 27 30 31 32 32 33 31 32 33 31 28 28 30 33 37 40 39 38 37 36 33 31
12 12 13 13 13 12 12 13 14 16 17 17 18 19 19 19 18 18 19 18 18 18 16 14 11 11 18 23 25 29 31 30 28 30 31 32 33 32 31 29 28 29 29 29 29 30 32 32 32 33 32 29 29 30 31 34 38 40 39 39 37 35 33
11 12 12 12 12 12 12 13 15 17 17 17 17 18 18 19 18 18 18 17 17 18 18 17 14 10 11 19 24 27 28 29 28 29 29 31 33 31 29 29 30 29 27 26 25 27 32 33 30 30 33 32 32 33 32 34 37 39 39 38 38 36 35
11 12 12 12 12 13 14 14 15 17 18 18 18 17 18 20 20 19 18 17 16 17 18 18 17 14 10 8 17 24 26 27 28 29 29 29 29 29 28 28 29 28 26 24 24 27 31 33 30 30 33 34 33 33 33 35 38 38 38 38 37 36 35
11 12 12 11 13 15 16 16 15 16 17 18 19 18 17 19 20 19 18 17 16 16 17 18 18 18 17 12 7 13 19 23 25 26 27 26 25 26 27 26 27 29 27 24 23 24 27 29 29 29 31 32 32 31 31 34 36 38 38 38 37 35 34
12 13 13 13 14 15 15 16 16 16 16 16 18 21 21 20 19 17 17 17 17 16 16 17 18 19 19 18 15 12 11 16 21 23 23 23 23 24 25 25 27 27 26 25 24 23 23 25 27 28 29 30 30 31 32 33 35 37 38 37 36 35 34
13 14 15 15 15 14 15 16 16 17 16 14 16 21 23 22 19 16 15 17 18 17 16 16 17 19 20 20 19 17 15 14 16 21 22 21 22 24 24 24 25 25 25 25 25 25 24 24 25 26 27 28 29 30 32 33 34 37 38 37 36 35 35
14 15 16 16 15 14 15 16 16 16 16 14 16 19 21 22 20 15 14 16 16 16 17 18 19 19 18 20 22 19 16 16 15 18 22 23 23 24 24 23 23 24 24 25 26 25 25 24 24 24 25 26 28 31 32 32 32 34 36 37 36 35 36
14 16 16 16 16 15 15 14 14 15 15 15 16 17 18 19 19 15 13 14 15 16 18 20 22 20 16 17 21 20 17 16 16 17 21 24 24 24 24 24 24 24 24 25 25 25 25 25 24 24 25 25 26 28 31 31 30 31 34 36 36 36 36
17 17 17 17 17 16 16 14 13 14 15 14 14 14 15 17 15 13 13 12 12 16 21 23 24 23 19 16 16 17 18 17 16 16 18 22 24 24 24 25 25 25 25 25 25 25 25 25 24 24 24 25 25 26 28 29 30 31 33 36 36 36 37
19 18 18 18 18 16 16 15 14 14 15 15 13 12 13 14 13 13 13 11 12 17 22 25 26 25 22 17 14 13 17 18 17 17 17 18 21 23 24 24 25 25 24 24 24 24 24 24 24 23 23 24 25 26 27 28 30 31 33 35 37 37 37
19 19 19 19 19 17 16 16 16 14 14 16 15 12 11 11 12 12 12 13 15 17 20 23 26 26 23 18 16 16 18 19 19 18 18 19 20 21 23 25 25 25 25 25 25 24 25 25 24 25 25 24 24 25 25 26 30 33 34 35 36 38 39
18 19 20 19 19 19 17 17 17 16 14 15 17 15 11 10 11 11 12 15 17 18 18 20 23 24 21 18 19 21 22 20 20 20 20 20 21 21 20 23 26 27 26 27 27 26 26 27 26 26 27 27 27 26 25 24 26 30 35 37 37 38 39
17 19 20 21 20 20 18 18 18 17 16 15 17 17 13 11 11 10 11 14 16 16 16 19 21 22 20 17 18 21 22 20 18 20 21 19 16 17 21 23 23 24 25 26 27 28 27 27 27 27 27 27 27 27 26 25 24 25 30 35 37 38 39
18 18 20 22 21 20 19 19 18 18 17 16 16 16 15 13 12 10 10 13 15 14 14 16 18 19 19 18 17 18 20 19 18 18 21 21 15 12 18 25 25 23 23 23 25 27 28 27 27 27 27 27 27 26 26 26 25 24 25 30 34 37 38
20 20 21 22 23 22 21 19 19 18 18 17 16 16 15 14 12 10 10 12 15 14 12 13 13 14 17 18 18 18 18 18 18 18 19 20 18 13 16 24 27 25 23 22 23 25 25 26 26 27 27 27 27 26 26 26 27 25 23 24 28 34 37
21 22 23 23 24 24 22 21 19 18 19 18 16 15 15 14 12 10 10 12 14 12 11 11 12 12 13 15 17 18 18 18 18 19 18 18 18 16 16 21 24 25 22 21 21 22 24 25 26 27 27 26 25 24 24 25 26 26 23 22 25 31 36
20 23 24 24 24 24 24 24 22 20 20 19 16 15 16 14 11 9 10 12 13 10 9 11 13 12 11 11 13 16 18 18 18 18 18 18 17 17 17 19 22 24 25 23 21 21 22 23 25 26 26 25 24 23 23 23 25 27 28 28 29 31 34
21 22 23 24 24 25 26 26 24 22 21 20 17 16 15 13 9 7 10 13 13 9 9 11 13 14 12 9 10 14 17 19 20 19 19 19 18 18 20 21 23 25 27 26 25 24 23 24 27 29 27 25 26 27 26 26 26 26 28 30 32 33 34
22 22 24 24 24 25 27 28 26 24 22 20 18 15 13 11 8 7 9 13 12 9 9 10 12 14 14 11 10 11 15 18 20 21 20 19 19 19 21 23 25 27 27 25 23 24 24 25 28 32 32 32 32 32 31 31 31 29 29 29 31 32 34
23 23 24 24 23 25 27 28 27 25 23 20 17 13 11 9 7 6 9 11 10 8 9 11 11 13 14 13 12 11 13 17 20 21 20 19 19 20 21 22 24 27 29 27 24 23 24 24 25 27 32 36 38 38 37 34 32 31 32 32 32 32 31
Wind_Direction
222 223 211 200 202 207 209 203 198 198 192 186 187 190 191 191 190 191 195 199 201 203 205 207 209 211 213 214 215 216 217 218 220 222 225 227 230 232 234 236 237 238 239 238 237 238 237 233 229 227 226 223 221 220 220 221 224 230 234 232 233 239 240
359 331 292 228 208 202 207 203 197 199 197 192 190 189 190 189 189 191 197 202 204 204 206 207 208 210 213 214 214 215 216 218 220 223 225 228 230 232 233 234 235 237 240 241 243 244 243 241 237 233 231 228 223 220 220 223 228 234 237 235 235 242 246
2 355 346 321 252 209 204 201 197 200 200 196 193 191 190 190 191 194 197 201 204 205 206 206 207 210 212 213 214 215 216 217 219 222 224 227 230 230 230 232 233 235 239 242 245 246 245 245 243 238 236 233 227 222 219 222 229 235 238 238 238 242 246
0 354 349 345 328 251 214 203 200 201 201 199 197 194 194 193 194 196 198 200 201 202 204 206 207 208 210 212 213 214 215 217 219 222 224 227 229 230 229 230 231 232 235 239 242 244 246 248 247 244 240 236 232 227 223 224 228 233 236 238 240 242 245
4 1 357 355 349 322 258 215 201 197 199 201 198 196 196 196 195 196 197 198 200 202 206 208 207 207 210 211 211 213 216 218 220 221 223 226 228 230 230 230 230 231 234 237 240 242 245 247 250 249 246 241 236 232 229 228 228 230 234 235 238 242 242
6 8 5 0 355 348 332 263 212 198 198 202 199 196 197 198 198 199 198 197 198 200 203 205 204 206 209 209 209 213 216 218 220 222 223 225 227 228 229 230 231 232 234 236 238 240 242 245 249 251 250 247 240 234 231 231 229 229 233 234 236 239 238
10 11 11 8 4 1 356 336 243 207 200 200 199 197 197 198 198 201 201 199 198 196 197 199 200 204 208 209 209 212 215 217 220 221 223 224 226 228 230 231 232 233 234 236 238 239 240 243 246 249 251 250 244 237 234 235 233 231 234 236 237 240 241
18 17 16 16 13 14 13 6 348 232 204 198 196 196 198 199 199 199 201 201 200 198 197 199 199 202 208 209 210 213 215 216 218 220 221 222 224 227 229 231 233 233 234 235 237 238 239 241 244 246 248 249 246 242 239 239 238 235 236 238 239 240 241
20 23 22 21 20 22 23 20 15 10 357 244 207 202 201 201 199 200 201 202 201 200 201 201 199 201 207 209 210 213 214 214 215 218 219 219 221 225 227 230 233 233 234 234 235 237 238 238 240 242 245 247 246 245 243 241 240 238 239 239 240 240 239
13 20 24 25 24 24 25 26 25 20 14 8 353 255 212 203 198 198 200 201 202 203 203 202 199 200 204 207 208 210 210 211 213 214 215 216 219 222 224 225 230 233 234 233 232 234 235 235 236 239 242 244 245 246 245 243 241 240 240 241 241 241 241
11 13 20 25 24 23 25 26 25 20 16 14 12 4 330 222 203 199 198 199 202 203 203 203 202 199 201 203 204 204 206 209 209 209 212 213 216 220 221 220 224 231 233 231 229 231 233 233 233 236 239 241 243 245 245 244 243 242 241 241 241 242 243
15 13 16 21 22 23 24 23 22 19 17 17 17 14 8 359 274 213 205 201 200 198 199 204 204 201 200 200 201 202 204 206 207 209 211 213 215 218 219 218 220 226 232 232 229 229 230 232 233 235 237 240 242 243 245 245 244 244 243 241 241 242 243
18 19 17 18 20 21 19 19 18 17 16 17 17 17 15 13 8 350 260 213 204 196 196 201 202 199 201 202 202 204 204 204 207 209 209 212 216 217 217 218 220 223 229 232 232 231 229 229 233 235 237 239 241 242 244 245 244 244 244 241 239 241 243
19 21 20 18 19 18 15 14 14 12 13 14 14 15 15 15 13 8 1 320 222 204 199 199 199 199 201 203 204 205 206 207 209 210 210 212 217 219 218 218 219 222 227 231 233 233 231 229 232 235 236 237 239 241 242 243 244 244 244 242 239 239 241
20 20 19 17 16 14 10 10 8 7 9 10 12 13 12 12 10 7 5 3 344 237 208 201 201 205 205 203 205 209 212 212 210 210 210 211 216 220 220 218 220 222 225 229 232 232 232 232 231 233 235 236 238 240 240 241 244 244 243 242 240 239 239
20 18 19 16 14 10 5 5 5 4 5 9 11 10 9 7 6 4 2 2 360 342 255 209 205 209 209 206 208 214 217 217 214 212 211 212 217 221 220 218 218 219 223 228 230 229 231 233 233 232 234 236 238 239 239 240 244 246 246 244 242 241 239
20 17 15 14 12 8 3 2 3 3 4 6 7 6 5 3 359 360 0 358 358 354 333 270 218 211 209 209 213 217 219 217 216 215 216 217 218 219 219 217 215 216 222 226 228 227 229 232 233 233 233 234 236 238 239 241 244 246 248 247 245 243 241
19 15 10 8 7 6 5 2 1 2 1 2 3 2 0 359 357 357 357 356 355 352 345 328 270 225 214 213 216 219 217 215 215 216 218 219 218 218 218 216 213 215 219 223 224 226 228 229 231 233 232 230 232 235 237 242 246 247 248 248 248 245 242
16 12 7 4 1 1 3 1 359 358 356 357 360 359 356 355 355 354 353 352 352 352 353 347 321 260 230 219 217 219 217 215 215 215 217 219 218 218 217 214 214 216 219 220 221 223 226 227 228 231 230 228 230 232 235 240 245 248 248 248 249 247 243
8 8 5 1 358 357 358 357 355 354 355 357 356 355 355 355 353 353 354 353 352 355 359 358 349 322 258 228 220 220 220 218 217 216 217 219 219 217 215 214 216 218 218 219 217 218 224 226 225 227 229 230 231 234 235 239 244 247 248 248 248 247 245
359 -0 1 359 354 350 350 352 352 351 352 354 352 352 355 355 354 355 357 359 358 359 2 1 1 360 341 264 230 225 224 222 221 219 219 219 217 216 215 214 217 218 217 217 216 217 224 226 223 225 229 231 232 234 237 240 243 246 247 248 247 246 245
352 350 350 351 349 347 343 343 345 347 347 347 350 353 353 352 353 354 356 0 2 2 3 2 2 2 2 353 303 248 233 227 225 222 221 219 214 215 215 214 217 218 216 217 219 221 225 226 224 224 228 230 230 231 236 240 243 245 246 247 247 244 243
348 344 341 339 341 341 338 337 338 339 341 343 349 355 355 352 352 354 356 359 360 360 1 3 2 358 354 353 347 326 285 250 233 225 223 219 215 215 216 216 218 219 217 217 221 224 224 224 225 226 228 230 229 229 234 239 242 244 246 246 245 241 240
343 344 340 336 335 335 337 338 335 334 336 339 346 353 356 356 354 354 358 359 356 354 356 359 360 354 348 345 342 336 325 300 259 235 225 222 220 220 219 219 219 219 218 218 220 225 226 226 227 228 229 229 229 230 234 239 242 245 245 245 243 240 238
333 337 337 334 332 332 333 332 328 328 333 338 342 347 352 356 357 356 357 359 355 352 352 351 351 348 343 342 341 334 325 317 293 256 234 226 225 225 223 221 220 218 218 220 222 225 228 228 229 229 230 231 232 234 237 239 242 245 245 245 243 239 238
325 328 329 329 329 329 327 324 321 324 329 334 338 341 345 351 353 351 352 358 356 350 347 345 344 343 337 336 341 339 327 319 310 283 251 233 228 227 224 222 222 220 219 221 224 225 227 228 228 230 232 233 233 235 237 238 240 242 244 245 242 239 237
320 320 320 322 324 324 321 319 318 317 320 325 331 335 340 343 342 338 342 353 356 351 347 345 343 340 336 334 338 339 333 323 314 302 276 248 234 229 227 225 224 224 223 223 224 224 225 226 228 230 234 235 235 236 236 237 238 240 242 244 243 240 236
317 317 318 320 320 319 318 318 316 312 313 318 324 330 335 335 334 332 334 340 349 349 348 348 345 339 335 335 335 333 332 328 319 313 303 276 249 232 227 227 228 226 224 224 223 222 223 224 226 230 234 237 238 238 237 238 239 239 240 242 243 241 238
314 313 315 315 314 314 313 313 311 307 305 309 316 323 328 327 329 333 332 333 340 345 346 347 346 341 334 331 330 328 330 332 327 322 317 305 283 256 237 231 231 230 227 227 226 225 227 228 229 232 237 240 241 240 237 237 239 241 240 241 242 243 241
309 310 310 310 309 311 310 308 307 305 300 300 306 313 318 319 322 327 330 331 335 341 343 342 343 341 334 327 326 327 328 331 332 328 322 317 309 294 269 247 236 233 232 232 230 230 232 234 235 236 237 240 242 243 242 238 237 241 243 242 242 243 242
304 305 307 307 306 307 306 303 301 301 298 295 298 303 309 315 318 317 323 330 333 333 335 338 340 339 334 327 324 325 326 326 330 332 327 320 312 303 294 279 256 241 237 236 233 233 234 235 236 235 236 237 239 242 244 241 237 238 243 245 244 243 243
303 303 305 305 305 305 303 300 298 296 294 292 292 294 300 310 314 310 314 327 333 329 326 333 337 335 331 328 324 324 325 324 326 331 328 321 314 295 287 286 275 257 246 240 236 234 235 234 234 235 235 237 238 238 240 242 239 236 237 242 244 243 243
304 305 304 303 304 304 301 297 293 291 292 292 289 287 291 301 308 306 308 324 334 332 324 324 327 327 327 327 325 326 327 325 326 330 327 323 323 310 285 281 280 270 257 247 241 238 235 234 234 235 234 235 237 238 238 239 240 236 230 233 238 241 242
303 303 302 302 302 301 299 293 287 286 288 289 287 284 285 293 301 302 305 321 330 331 323 316 314 317 322 324 324 326 328 325 325 328 326 322 321 314 296 287 286 281 270 257 249 245 241 237 235 235 235 235 234 234 235 236 235 231 225 222 228 235 238
302 301 300 300 300 299 296 290 284 283 284 284 284 282 281 287 296 297 304 319 326 326 320 314 310 309 316 323 324 325 326 325 324 323 320 317 315 308 295 285 281 280 278 271 264 259 258 255 247 241 239 239 236 232 230 230 230 231 230 229 229 232 234
302 299 298 299 299 297 295 290 285 282 280 281 282 279 277 281 288 289 303 319 324 319 315 315 310 307 310 320 325 325 326 324 322 319 316 314 312 307 298 289 282 279 279 279 277 273 270 267 260 253 249 248 245 239 233 233 236 239 241 240 237 237 238
301 298 297 297 297 295 294 291 286 282 280 280 279 273 268 273 279 282 303 318 321 314 312 313 308 306 308 313 321 326 325 321 317 315 313 312 312 310 304 299 295 288 283 283 286 285 279 272 263 256 251 249 250 249 246 246 247 248 249 249 246 244 243
300 296 294 294 294 294 294 291 286 282 280 279 276 268 261 264 270 283 305 315 316 310 308 307 302 301 304 308 314 321 323 319 316 313 312 313 313 310 306 304 303 298 292 287 286 286 284 280 272 262 253 248 249 251 252 253 254 253 252 252 251 249 246